{"data":{"norad_id":50005,"intl_designator":"2021-124A","name":"TIANLIAN 2-02","alt_names":[],"object_type":"PAYLOAD","status":"ACTIVE","operator":null,"country":"PRC","launch_date":"2021-12-13","launch_site_code":"XICLF","launch_vehicle":null,"mission":null,"orbit_class":"UNKNOWN","rcs_meters":null,"size_class":null,"mass_kg":null,"dimensions":null,"purposes":["comms"],"wikipedia_slug":null,"has_3d_model":false,"image_url":null,"decayed_at":null,"tle_current":{"epoch":"2026-09-19T21:12:19.456992Z","epoch_age_seconds":75096,"freshness":"FRESH","line1":"1 50005U 21124A   26262.88355853 -.00000018  00000+0  00000+0 0  9991","line2":"2 50005   1.0390  84.4840 0003563 152.0199 251.3425  1.00273329 17576","mean_motion":1.00273329,"eccentricity":0.0003563,"inclination_deg":1.039,"raan_deg":84.484,"arg_perigee_deg":152.0199,"mean_anomaly_deg":251.3425,"bstar":0,"rev_number":1757,"period_min":1436.0747911341,"perigee_km":35771.138987717,"apogee_km":35801.185267275,"semimajor_km":42164.299127496,"source":"CELESTRAK","updated_at":"2026-09-20T09:00:35.301882Z"}}}